Flag for India Weather past 2 weeks in Kannauj, Uttar Pradesh, India

Now
86 °F

Haze.


Feels Like: 97 °F
Forecast: 85 / 101 °F
Wind: 5 mph from West

Location: Lucknow / Amausi

Current Time: Jul 3, 2015 at 8:11:58 AM

Latest Report: Jul 3, 2015 at 7:00 AM


Visibility: 2 mi

Pressure: 29.56 "Hg

Humidity: 75%

Dew point: 77 °F

Location of KannaujLocation

Historic Weather in Kannauj — Graph

°F

Kannauj temperature yesterday

Maximum temperature yesterday: 97 °F (at 2:00 PM)
Minimum temperature yesterday: 82 °F (at 2:00 AM)
Average temperature yesterday: 91 °F

Past Weeks' High & Low Weather Summary

 TemperatureHumidityPressure
High108 °F (Jun 20, 3:00 PM)100% (Jun 29, 11:30 AM)29.65 "Hg (Jun 29, 11:30 AM)
Low75 °F (Jun 29, 8:00 PM)30% (Jun 18, 5:00 PM)29.27 "Hg (Jun 25, 4:30 PM)
Average91 °F66%29.48 "Hg
* Reported Jun 18 5:30 AM — Jul 3 6:00 AM, Kannauj, Weather by CustomWeather, © 2015

Note: Actual official high and low records may vary slightly from our data, if they occured in-between our weather recording intervals... More about our weather records

Advertising

Kannauj weather history for previous 24 hours

 ConditionsComfort  
Time TempWeatherWind HumidityBarometerVisibility
6:00 AM
Fri, Jul 3
84 °FHaze.2 mph84%29.53 "Hg2 mi
5:30 AM84 °FPassing clouds.2 mph84%29.53 "Hg2 mi
5:00 AM86 °FPassing clouds.No wind84%29.53 "Hg2 mi
2:00 AM86 °FPassing clouds.No wind84%29.53 "Hg2 mi
1:00 AM88 °FPassing clouds.No wind79%29.53 "Hg2 mi
12:00 AM88 °FPassing clouds.No wind75%29.56 "Hg2 mi
11:00 PM
Thu, Jul 2
90 °FPassing clouds.No wind71%29.56 "Hg2 mi
9:00 PM91 °FPassing clouds.No wind67%29.56 "Hg2 mi
8:30 PM91 °FPassing clouds.No wind67%29.53 "Hg2 mi
7:30 PM95 °FScattered clouds.2 mph56%29.53 "Hg3 mi
7:00 PM95 °FScattered clouds.2 mph56%29.50 "Hg3 mi
6:30 PM97 °FHaze.3 mph56%29.50 "Hg3 mi
6:00 PM97 °FHaze.6 mph53%29.50 "Hg3 mi
5:30 PM97 °FHaze.5 mph50%29.50 "Hg3 mi
5:00 PM97 °FPassing clouds.6 mph50%29.50 "Hg3 mi
4:30 PM97 °FPassing clouds.6 mph53%29.50 "Hg3 mi
4:00 PM97 °FScattered clouds.6 mph50%29.50 "Hg3 mi
3:30 PM97 °FScattered clouds.6 mph53%29.53 "Hg3 mi
3:00 PM97 °FScattered clouds.5 mph53%29.53 "Hg3 mi
2:30 PM97 °FScattered clouds.5 mph53%29.56 "Hg3 mi
2:00 PM97 °FScattered clouds.5 mph56%29.56 "Hg3 mi
1:30 PM95 °FScattered clouds.6 mph60%29.59 "Hg3 mi
1:00 PM95 °FScattered clouds.6 mph60%29.59 "Hg3 mi
12:30 PM93 °FScattered clouds.6 mph63%29.62 "Hg3 mi
12:00 PM93 °FScattered clouds.5 mph63%29.62 "Hg3 mi
11:30 AM93 °FScattered clouds.6 mph63%29.62 "Hg3 mi
10:30 AM91 °FScattered clouds.5 mph67%29.65 "Hg3 mi
10:00 AM91 °FScattered clouds.5 mph67%29.65 "Hg3 mi
9:30 AM90 °FScattered clouds.6 mph71%29.65 "Hg2 mi
9:00 AM90 °FScattered clouds.5 mph71%29.65 "Hg2 mi
8:30 AM88 °FFog.3 mph75%29.65 "Hg2 mi
8:00 AM84 °FFog.No wind84%29.65 "Hg2 mi
Weather by CustomWeather, © 2015

See weather overviewHow to use our weather pages